Location: Kitchener
(43.4500°N, 80.5000°W)
Time: 23:44:00
(UTC-04:00)

Cosmos 1939 Rocket - Visible Passes

Search period start: 31 July 2014 00:00
Search period end: 10 August 2014 00:00
Orbit: 545 x 591 km, 97.6° (Epoch: 31 July)

Date Brightness Start Highest point End Pass type
(mag) Time Alt. Az. Time Alt. Az. Time Alt. Az.
31 Jul 3.9 21:16:19 10° SE 21:19:50 30° ENE 21:23:25 10° N visible
31 Jul 5.0 22:51:46 10° SSW 22:54:56 22° W 22:58:10 10° NW visible
01 Aug 3.9 21:17:31 10° SE 21:21:05 31° ENE 21:24:42 10° N visible
01 Aug 5.0 22:53:04 10° SW 22:56:12 22° W 22:59:24 10° NW visible
02 Aug 3.8 21:18:43 10° SE 21:22:19 32° ENE 21:25:59 10° N visible
02 Aug 5.1 22:54:22 10° SW 22:57:28 21° W 23:00:37 10° NW visible
03 Aug 3.8 21:19:56 10° SE 21:23:34 33° ENE 21:27:16 10° N visible
03 Aug 5.1 22:55:40 10° SW 22:58:43 21° W 23:01:50 10° NW visible
04 Aug 3.7 21:21:08 10° SE 21:24:48 34° ENE 21:28:32 10° N visible
04 Aug 5.2 22:56:58 10° SW 22:59:59 20° W 23:03:02 10° NW visible
05 Aug 3.7 21:22:21 10° SE 21:26:03 35° ENE 21:29:49 10° N visible
05 Aug 5.2 22:58:17 10° SW 23:01:14 19° W 23:04:15 10° NW visible
06 Aug 3.7 21:23:33 10° SE 21:27:17 36° ENE 21:31:05 10° N visible
06 Aug 5.3 22:59:35 10° SW 23:02:30 19° W 23:05:27 10° NW visible
07 Aug 3.6 21:24:46 10° SE 21:28:32 38° ENE 21:32:22 10° N visible
07 Aug 5.3 23:00:54 10° SW 23:03:46 18° W 23:06:40 10° NW visible
08 Aug 3.6 21:26:06 11° SE 21:29:46 39° ENE 21:33:38 10° N visible
08 Aug 5.3 23:02:13 10° SW 23:05:01 18° W 23:07:52 10° NW visible
09 Aug 3.5 21:27:26 11° SE 21:31:01 40° ENE 21:34:54 10° N visible
09 Aug 5.4 23:03:32 10° SW 23:06:17 17° W 23:09:04 10° NW visible
